Location: Bergnerzell
(49.1816°N, 10.2565°E)
Time: 21:34:04
(UTC+00:00)

Cosmos 2322 Rocket - Pass Details

Date: 23 May 2024
Orbit: 832 x 850 km, 71.0° (Epoch: 14 June)

Event Time Altitude Azimuth Distance (km) Brightness Sun altitude
Rises 02:35:35 0° 323° (NW) 3,402 5.4 -7.3°
Reaches altitude 10° 02:38:23 10° 311° (NW) 2,466 4.6 -6.9°
Maximum altitude 02:42:58 26° 257° (WSW) 1,605 3.2 -6.4°
Drops below altitude 10° 02:47:32 10° 203° (SSW) 2,461 4.1 -5.8°
Sets 02:50:20 0° 191° (S) 3,394 4.9 -5.5°
